832  
ASUS44 KBMX 252210  
RWRAL  
 
ALABAMA REGIONAL WEATHER ROUNDUP  
NATIONAL WEATHER SERVICE BIRMINGHAM AL  
400 PM CST SAT JAN 25 2020  
 
NOTE: "FAIR" INDICATES FEW OR NO CLOUDS BELOW 12,000 FEET  
WITH NO SIGNIFICANT WEATHER AND/OR S TO VISIBILITY
.  
 
THE REMARK "TC" DENOTES TEMPERATURE IN DEGREES CELSIUS.  
 
ALZ001>011-014-016>018-020-252300-  
NORTH ALABAMA  
 
CITY SKY/WX TMP DP RH WIND PRES REMARKS
 
MUSCLE SHOALS CLOUDY 43 31 62 W8 30.13R  
HUNTSVILLE CLOUDY 40 31 70 W6 30.12S  
DECATUR CLOUDY 40 32 73 W10 30.13S WCI 33  
HALEYVILLE FAIR 42 32 67 W5 30.13S  
GADSDEN CLOUDY 42 32 67 NW6 30.13R  

 
 
ALZ012-013-022-023-030>036-040>044-252300-  
WEST CENTRAL ALABAMA  
 
CITY SKY/WX TMP DP RH WIND PRES REMARKS
 
TUSCALOOSA FAIR 52 33 48 W8 30.13S  
DEMOPOLIS FAIR 54 33 45 CALM 30.13R  

 
 
ALZ015-024>026-033>036-041>044-252300-  
CENTRAL ALABAMA  
 
CITY SKY/WX TMP DP RH WIND PRES REMARKS
 
BIRMINGHAM PTSUNNY 47 33 58 N7 30.14R  
MONTGOMERY FAIR 55 35 47 W12 30.12R  
SHELBY CO ARPT FAIR 50 34 54 VRB6 30.11R  
MAXWELL AFB FAIR 55 33 44 W5 30.10R  
GREENVILLE NOT AVBL  
SELMA N/A 54 36 50 W8 30.12S  
PRATTVILLE FAIR 54 35 47 W7 30.10R  
BESSEMER FAIR 50 34 54 W6 30.12R  
TALLADEGA FAIR 45 32 60 W5 30.12R  
PELL CITY CLEAR 46 36 66 NW5 30.13R  
MARION FAIR 52 34 50 W7 30.12S  
SYLACAUGA FAIR 50 34 54 CALM 30.11R  

 
 
ALZ019-021-028-029-037-038-045>048-252300-  
EAST CENTRAL ALABAMA  
 
CITY SKY/WX TMP DP RH WIND PRES REMARKS
 
ANNISTON FAIR 45 33 63 W8 30.11R  
ALEXANDER CITY FAIR 52 33 49 NW7 30.09R  
AUBURN FAIR 52 34 50 NW8 30.09R  

 
 
ALZ051>064-252300-  
SOUTHWEST ALABAMA  
 
CITY SKY/WX TMP DP RH WIND PRES REMARKS
 
MOBILE FAIR 60 31 33 NW7 30.13R  
BROOKLEY FIELD FAIR 57 43 59 S5 30.14R  
EVERGREEN FAIR 60 32 34 NW7 30.11R  

 
 
ALZ049-050-065>069-252300-  
SOUTHEAST ALABAMA  
 
CITY SKY/WX TMP DP RH WIND PRES REMARKS
 
DOTHAN FAIR 57 35 43 NW10 30.11S  
OZARK FAIR 58 35 43 W8 30.09R  
TROY FAIR 55 34 45 NW9 30.10R  
EUFAULA NOT AVBL  

 
 
 
CLICK HERE TO GO TO PREVIOUS BULLETINS.

The Nexlab AL Page Main Text Page